Location: Unspecified
(0.0000°N, 0.0000°E)
Time: 06:23:33
(UTC+02:00)

Cosmos 2219 - Visible Passes

Search period start: 05 July 2015 00:00
Search period end: 15 July 2015 00:00
Orbit: 835 x 859 km, 71.1° (Epoch: 04 July)

Date Brightness Start Highest point End Pass type
(mag) Time Alt. Az. Time Alt. Az. Time Alt. Az.
10 Jul 5.7 22:31:46 10° NNE 22:31:46 10° NNE 22:31:48 10° NNE visible
11 Jul 4.5 22:15:54 27° NNE 22:15:54 27° NNE 22:18:23 10° NNE visible
12 Jul 3.0 21:53:43 10° SSW 21:59:21 83° ESE 22:04:57 10° NNE visible
13 Jul 3.0 21:40:18 10° SSW 21:45:55 81° ESE 21:51:32 10° NNE visible
14 Jul 3.0 21:26:53 10° SSW 21:32:30 78° ESE 21:38:06 10° NNE visible
